Location: Eckley Miners' Village
(40.9930°N, 75.8630°W)
Time: 00:59:25
(UTC-04:00)

Vanguard 1 Rocket - Pass Details

Date: 13 March 2026
Orbit: 654 x 4213 km, 34.3° (Epoch: 18 April)

Event Time Altitude Azimuth Distance (km) Brightness Sun altitude
Rises 08:55:25 0° 241° (WSW) 3,322 9.9 17.1°
Reaches altitude 10° 08:58:16 10° 231° (SW) 2,187 9.1 17.6°
Maximum altitude 09:02:22 30° 168° (SSE) 1,155 8.6 18.3°
Drops below altitude 10° 09:06:21 10° 106° (ESE) 2,127 11.7 19.0°
Sets 09:09:05 0° 95° (E) 3,213 11.6 19.5°
